Location: Waco, TX
(31.5480°N, 97.1670°W)
Time: 09:45:26
(UTC-05:00)

ISS - All Passes

Search period start: 18 April 2019 00:00
Search period end: 28 April 2019 00:00
Orbit: 408 x 410 km, 51.6° (Epoch: 18 April)

Date Brightness Start Highest point End Pass type
(mag) Time Alt. Az. Time Alt. Az. Time Alt. Az.
18 Apr - 08:12:08 10° SE 08:12:36 10° SE 08:13:05 10° ESE daylight
18 Apr - 09:45:36 10° WSW 09:48:48 49° NW 09:52:02 10° NE daylight
18 Apr - 16:18:28 10° N 16:20:42 17° NE 16:22:55 10° ENE daylight
18 Apr - 17:54:18 10° WNW 17:57:23 37° SW 18:00:27 10° SSE daylight
19 Apr - 08:54:48 10° SW 08:58:05 74° SE 09:01:23 10° NE daylight
19 Apr - 10:33:55 10° NW 10:35:01 11° NNW 10:36:05 10° NNW daylight
19 Apr - 15:29:23 10° NNE 15:29:43 10° NNE 15:30:04 10° NE daylight
19 Apr - 17:03:24 10° NW 17:06:42 87° SW 17:10:00 10° SE daylight
20 Apr - 08:04:27 10° SSW 08:07:25 32° SE 08:10:25 10° ENE daylight
20 Apr - 09:41:38 10° W 09:44:03 19° NW 09:46:28 10° N daylight
20 Apr - 16:12:47 10° NNW 16:15:57 42° NE 16:19:05 10° ESE daylight
20 Apr - 17:50:52 10° WSW 17:52:12 12° SW 17:53:32 10° SSW daylight
21 Apr - 07:14:48 10° SSE 07:16:49 15° SE 07:18:51 10° E daylight
21 Apr - 08:50:08 10° WSW 08:53:09 33° NW 08:56:12 10° NNE daylight
21 Apr - 15:22:25 10° NNW 15:25:05 22° NE 15:27:45 10° E daylight
21 Apr - 16:58:51 10° WNW 17:01:37 25° SW 17:04:22 10° S daylight
22 Apr - 07:59:04 10° SW 08:02:21 71° NW 08:05:39 10° NE daylight
22 Apr - 14:32:27 10° N 14:34:08 13° NNE 14:35:48 10° ENE daylight
22 Apr - 16:07:43 10° NW 16:10:57 55° SW 16:14:10 10° SSE daylight
23 Apr - 07:08:25 10° SSW 07:11:37 49° SE 07:14:49 10° NE daylight
23 Apr - 08:46:32 10° WNW 08:48:23 14° NNW 08:50:15 10° N daylight
23 Apr - 15:16:54 10° NW 15:20:12 64° NE 15:23:28 10° SE daylight
24 Apr - 06:18:17 10° S 06:20:56 22° SE 06:23:36 10° ENE visible
24 Apr - 07:54:40 10° W 07:57:25 24° NW 08:00:11 10° NNE daylight
24 Apr - 14:26:23 10° NNW 14:29:20 30° NE 14:32:19 10° ESE daylight
24 Apr - 16:03:30 10° W 16:05:43 17° SW 16:07:55 10° S daylight
25 Apr - 05:29:26 10° SE 05:30:19 11° SE 05:31:12 10° ESE visible
25 Apr - 07:03:20 10° WSW 07:06:32 46° NW 07:09:44 10° NNE daylight
25 Apr - 13:36:06 10° N 13:38:24 17° NE 13:40:41 10° E daylight
25 Apr - 15:12:00 10° WNW 15:15:04 35° SW 15:18:06 10° SSE daylight
26 Apr - 06:12:26 10° SW 06:15:43 78° SE 06:19:01 10° NE visible
26 Apr - 07:51:44 10° NW 07:52:39 11° NNW 07:53:33 10° NNW daylight
26 Apr - 12:46:41 10° NNE 12:47:21 10° NNE 12:48:01 10° NE daylight
26 Apr - 14:21:00 10° NW 14:24:19 83° SW 14:27:36 10° SE daylight
27 Apr - 05:21:57 10° SSW 05:24:58 33° SE 05:27:59 10° ENE visible
27 Apr - 06:59:15 10° W 07:01:36 18° NW 07:03:57 10° N daylight
27 Apr - 13:30:18 10° NNW 13:33:28 44° NE 13:36:38 10° ESE daylight
27 Apr - 15:08:34 10° WSW 15:09:42 11° SW 15:10:50 10° SW daylight
